Lid_Strength_Index
-1 0 0 3 11 11 14 12 9 9 8 6 5 6 7 7 8 12 2 1 0 0 -0 -1 -2 -1 -2 -1 -1 -1 -1 -1 -1 -1 -1 -1 -1 -1 -1 -1 -1 -1 -1 -1 -1 -1 -1 -1 -1
-0 0 2 6 13 16 13 9 9 8 6 6 5 6 7 8 5 4 3 1 0 -0 -0 -0 -1 -2 -1 -1 -1 -2 -2 -2 -2 -2 -2 -2 -2 -2 -2 -1 -1 -1 -1 -1 -1 -1 -1 -1 -1
0 0 6 10 13 14 13 9 8 6 6 6 6 6 6 6 4 3 2 1 0 0 -0 -1 -1 -2 -1 -1 -1 -2 -2 -2 -2 -2 -2 -2 -2 -2 -2 -2 -1 -1 -1 -1 -1 -1 -1 -1 -1
3 4 6 11 13 10 9 8 7 7 6 5 6 7 5 4 3 2 2 1 1 0 -0 -1 -1 -1 -1 -1 -1 -2 -2 -2 -2 -2 -2 -2 -2 -2 -2 -2 -2 -1 -1 -1 -1 -1 -1 -1 -1
3 6 11 13 12 9 8 6 6 7 6 6 6 7 6 4 1 1 1 1 1 0 -0 -0 -2 -1 -1 -1 -1 -2 -2 -2 -2 -2 -2 -2 -2 -2 -2 -2 -2 -2 -1 -1 -1 -1 -1 -1 -1
7 6 12 13 11 9 9 6 6 7 7 6 6 7 6 5 3 2 1 1 0 0 -0 -0 -1 -1 -1 -1 -2 -1 -2 -2 -2 -2 -2 -2 -2 -2 -2 -2 -2 -2 -2 -2 -1 -1 -1 -1 -1
8 9 12 11 10 9 7 7 7 7 7 7 5 8 7 5 3 2 2 2 1 0 0 -0 -0 -1 -2 -2 -2 -2 -2 -2 -2 -2 -2 -2 -2 -2 -2 -2 -2 -2 -2 -2 -2 -1 -1 -1 -1
6 8 11 11 10 10 6 6 5 6 7 5 5 8 8 4 3 2 2 2 2 1 0 0 -0 -0 -0 -0 -2 -2 -2 -2 -2 -2 -2 -2 -2 -2 -2 -2 -2 -2 -2 -2 -2 -2 -1 -1 -0
5 11 12 11 10 9 7 8 6 6 6 5 6 6 4 3 3 3 3 4 3 2 1 0 0 -0 0 0 -1 -1 -2 -2 -2 -1 -2 -1 1 0 0 -1 -2 -2 -2 -1 -1 -0 -0 -1 -1
8 11 10 8 8 9 7 7 7 8 8 7 7 5 4 3 5 4 4 4 4 4 3 1 0 0 0 -0 -0 1 0 1 1 1 1 1 1 1 -0 -1 -2 -1 -0 0 1 1 2 1 3
8 11 8 7 7 6 7 8 6 8 9 8 7 6 4 5 5 4 4 4 4 4 3 1 0 0 0 0 0 1 1 2 2 1 1 2 2 1 2 2 2 4 1 5 4 6 6 7 6
9 7 7 7 5 6 8 7 8 8 7 7 6 7 5 5 5 5 4 4 4 4 3 2 0 1 1 1 1 1 1 2 3 4 2 4 4 3 4 4 5 6 6 6 7 7 7 8 8
9 8 6 6 6 7 7 8 8 7 6 6 5 5 6 6 5 5 4 4 4 5 4 3 2 1 1 2 1 2 3 2 3 5 5 5 5 5 5 5 5 6 7 8 8 8 8 9 9
8 7 7 7 7 8 8 8 8 7 7 6 6 6 7 6 6 5 5 4 4 4 3 2 2 2 2 2 2 3 4 3 5 5 6 6 5 6 6 7 7 7 7 7 8 8 8 9 9
7 9 9 9 8 8 7 9 9 8 7 8 8 10 9 8 6 6 6 6 4 4 4 2 2 2 2 3 3 3 4 5 7 6 6 5 6 6 7 7 7 7 7 8 8 9 9 9 9
11 11 13 9 8 7 9 12 8 7 9 9 9 9 8 8 7 7 6 5 5 5 4 3 1 1 2 3 2 2 4 6 7 7 7 6 5 6 7 7 7 7 8 8 9 9 9 9 9
12 15 14 12 9 8 10 12 9 8 8 9 10 10 8 8 7 7 6 6 6 5 5 4 4 5 2 2 3 2 3 6 7 7 7 7 5 5 6 7 7 7 8 8 8 9 9 9 9
15 16 14 15 11 10 11 11 9 9 9 9 9 9 9 9 8 7 7 6 6 6 6 5 4 4 6 4 4 5 5 6 7 7 7 7 6 5 6 6 7 7 8 8 8 9 9 9 9
13 14 14 12 9 11 11 11 10 8 9 11 11 11 11 10 9 8 8 7 7 6 6 6 5 5 6 7 8 6 6 6 7 7 6 7 6 5 6 6 7 7 7 8 8 9 9 10 10
12 13 14 11 9 10 11 11 10 11 11 11 12 12 11 11 10 9 8 8 7 7 6 6 6 5 5 5 7 7 5 7 6 6 7 7 7 7 6 6 7 7 8 8 9 9 10 10 10
12 13 13 13 11 11 12 13 11 11 11 10 11 11 11 11 11 10 9 9 8 8 7 6 6 6 5 5 5 4 6 6 7 8 8 7 7 7 7 6 6 7 7 7 8 9 9 10 10
14 10 11 11 13 16 12 17 13 12 12 12 13 14 13 12 11 10 9 9 8 7 6 6 6 5 4 4 5 6 6 7 6 6 5 6 6 7 6 6 6 6 6 7 7 8 9 10 10
13 10 11 11 14 15 13 16 15 12 15 15 15 13 13 12 11 10 10 9 8 8 7 6 6 6 5 5 4 4 6 6 4 3 5 6 6 6 6 7 6 6 6 6 7 8 9 9 10
9 11 13 14 15 18 15 14 16 15 16 15 15 13 13 12 11 11 10 9 9 8 8 7 6 6 5 5 5 4 4 5 6 5 4 4 5 6 6 7 6 6 6 7 7 7 8 9 9
12 16 19 19 18 18 13 15 17 15 14 14 14 14 13 13 12 11 10 10 9 9 8 7 7 7 6 6 6 5 4 5 5 5 4 4 4 5 7 6 7 7 6 6 7 8 8 8 9
14 15 18 21 20 18 13 17 16 14 13 13 13 13 12 12 11 10 10 9 9 9 8 7 6 7 6 6 6 5 4 4 4 4 4 4 3 4 5 6 6 6 6 6 7 7 7 8 9
14 17 15 18 17 20 17 16 15 14 14 13 13 12 12 11 10 10 9 9 9 9 8 8 7 7 7 7 7 7 5 5 4 4 4 4 3 2 4 6 6 6 6 6 7 7 8 8 9
14 13 18 18 22 24 20 19 17 16 15 13 12 11 12 11 10 10 9 8 7 7 7 7 8 8 7 6 5 4 4 4 3 3 3 4 4 3 3 4 5 6 6 6 7 7 8 8 9
16 17 17 18 19 23 24 21 16 16 13 13 12 11 11 11 10 9 9 9 9 9 8 7 6 6 5 4 4 3 3 2 2 2 2 3 5 3 2 4 5 6 6 6 7 7 8 8 9
15 17 17 22 21 20 23 21 14 13 12 12 12 11 11 10 10 10 10 9 9 8 7 5 4 3 3 3 3 2 2 1 2 2 2 1 3 4 3 3 4 5 5 6 7 8 8 8 9